STARLINK-35206

Last updated on Tue Oct 14 2025 00:02:05 GMT+0000 (Coordinated Universal Time)

1 65614U 25207Y 25286.14182281 .00058137 00000+0 14802-2 0 9998 2 65614 97.6018 349.5642 0001658 80.8978 279.2454 15.39371517 5716

Satellite not in orbit

STARLINK-35206